Погода в Воронихе

Россия / Алтайский край     52°45′18″N   82°13′03″E
темп.,
°C
ветер,
м/с
пор.,
м/с
влажн.,
%
обл.,
%
осадки,
мм/ч
давл.,
гПа
погр.,
м
16 мая, вс
вс1601:00+16юз47445 0.0 1020101
04:00+14зюз49485 0.0 1019116
07:00+14юз410555 0.0 1018180
10:00+21зюз68395 0.0 1017537
13:00+26зюз79335 0.3 10161689
16:00+27з893111 0.0 10132602
19:00+26з693425 0.0 10121198
22:00+21зюз3746100 0.0 1011129
17 мая, пн
пн1701:00+16зюз2381100 1.2 101381
04:00+14юз34919 0.3 101376
07:00+15з238834 0.3 1014114
10:00+19ссв336939 0.0 1016854
13:00+22с334864 0.0 10151761
16:00+23ссз554159 0.0 10152258
19:00+22ссз55475 0.0 10161359
22:00+17юв22670 0.0 101529
18 мая, вт
вт1801:00+16ю35705 0.0 101580
04:00+15юз49741 0.1 1014148
07:00+16юз5137411 0.6 1012308
10:00+23зюз794720 0.0 1009582
13:00+28зсз81230100 0.0 10083329
16:00+27зсз7113431 0.0 10071439
19:00+25сз711385 0.0 10061202
22:00+19зсз22557 0.0 100812
19 мая, ср
ср1901:00+16зсз2270100 0.9 100831
04:00+14з368497 1.1 1007130
07:00+14сз2589100 2.3 1006184
10:00+16сз2279100 1.5 1006642
13:00+15с5680100 3.5 1005660
16:00+15с5667100 0.1 10061136
19:00+12с6876100 0.1 1006853
22:00+9с61189100 2.7 1008652
20 мая, чт
чт2001:00+9с71270100 4.1 1009698
04:00+8ссз61066100 0.0 1010620
07:00+7ссз5882100 0.0 1012397
10:00+6с8880100 0.3 1014836
13:00+6с91270100 1.6 10161465
16:00+8с101144100 0.6 10182326
19:00+7ссв9136344 1.0 10211656
22:00+5с512525 0.1 1024508